CAPE
nan nan nan nan nan nan nan nan nan nan nan nan nan nan nan nan nan nan nan nan nan nan nan nan nan nan nan nan nan nan nan nan nan nan nan nan 1 1 2 4 4 5 7 8 8 10 11 13 13 14 15 17 16 16 15 17 17 18 20 24 24 28 37 39 39 41 44 45 44 44 49 56 53 53 51 56 61 61 67 69 69 72 71 74 74 75
nan 0 nan nan nan nan nan nan nan nan nan nan nan nan nan nan nan nan nan nan nan nan nan nan nan nan nan nan nan nan nan nan nan nan nan nan 1 1 2 3 3 6 7 9 9 10 13 14 14 15 15 15 15 15 15 16 16 17 19 22 22 27 33 36 36 37 38 38 38 38 40 45 43 43 47 46 54 54 63 72 72 69 71 72 72 77
nan nan nan nan nan nan nan nan nan nan nan nan nan nan nan nan nan nan nan nan nan nan nan nan nan nan nan nan nan nan nan nan nan nan nan 0 1 1 2 3 3 5 8 9 9 12 14 14 14 14 14 15 15 15 15 15 15 19 19 22 22 26 30 33 33 33 32 33 36 36 36 41 40 40 42 46 56 56 68 73 73 72 75 72 72 76
nan nan nan nan nan nan nan nan nan nan nan nan nan nan nan nan nan nan nan nan nan nan nan nan nan nan nan nan nan nan nan nan nan nan nan 0 1 1 3 4 4 6 8 12 12 13 14 15 15 15 16 15 16 16 17 21 21 21 22 24 24 26 29 29 29 30 29 31 32 32 34 35 38 38 41 43 56 56 65 66 66 64 67 65 65 76
nan nan nan nan nan nan nan nan nan nan nan nan nan nan nan nan nan nan nan nan nan nan nan nan nan nan nan nan nan nan nan nan nan nan nan 1 2 2 4 5 5 8 9 12 12 14 14 15 15 15 17 18 19 19 20 21 21 22 23 23 23 26 28 29 29 28 27 29 32 32 32 36 39 39 41 43 48 48 53 53 53 51 55 56 56 59
nan nan nan nan nan nan nan nan nan nan nan nan nan nan nan nan nan nan nan nan nan nan nan nan nan nan nan nan nan nan nan nan nan nan 0 1 2 2 4 5 5 7 9 10 10 11 13 15 15 16 18 18 19 19 20 20 20 23 24 24 24 24 25 28 28 28 29 29 30 30 31 34 35 35 35 36 39 39 42 43 43 44 46 50 50 54
nan nan nan nan nan nan nan nan nan nan nan nan nan nan nan nan nan nan nan nan nan nan nan nan nan nan nan nan nan nan nan nan nan nan nan 0 0 0 1 3 3 4 6 7 7 9 10 11 11 13 15 18 21 21 22 23 23 23 26 25 25 24 26 26 26 27 27 28 29 29 28 28 29 29 28 29 30 30 33 36 36 38 43 49 49 54
nan nan nan nan nan nan nan nan nan nan nan nan nan nan nan nan nan nan nan nan nan nan nan nan nan nan nan nan nan nan nan nan nan nan nan nan nan nan nan 0 0 2 3 5 5 5 7 9 9 11 14 17 19 19 20 20 20 20 20 20 20 21 22 21 21 19 19 19 17 17 17 17 17 17 18 18 19 19 22 29 29 37 47 57 57 61
nan nan nan nan nan nan nan nan nan nan nan nan nan nan nan nan nan nan nan nan nan nan nan nan nan nan nan nan nan nan nan nan nan nan nan nan nan nan nan 3 3 4 5 5 5 5 6 8 8 10 12 12 14 14 14 16 16 14 13 14 14 13 13 13 13 13 12 13 13 13 13 14 15 15 17 17 18 18 21 27 27 36 47 59 59 64
nan nan nan nan nan nan nan nan nan nan nan nan nan nan nan nan nan nan nan nan nan nan nan nan nan nan nan nan nan nan nan nan nan nan nan nan 0 0 1 1 1 1 4 4 4 4 4 4 4 5 4 6 7 7 9 8 8 7 6 6 6 6 5 7 7 8 9 11 12 12 13 14 16 16 17 19 22 22 25 29 29 35 48 61 61 68
nan nan nan nan nan nan nan nan nan nan nan nan nan nan nan nan nan nan nan nan nan nan nan nan nan nan nan nan nan nan nan nan nan nan nan nan nan nan 0 0 0 1 2 1 1 1 1 1 1 0 1 2 3 3 3 2 2 2 2 2 2 2 3 5 5 6 8 10 13 13 14 17 19 19 22 24 27 27 30 35 35 38 51 63 63 70
nan nan nan nan nan nan nan nan nan nan nan nan nan nan nan nan nan nan nan nan nan nan nan nan nan nan nan nan nan nan nan nan nan nan nan nan nan nan nan nan nan nan nan nan nan nan nan nan nan nan nan nan 0 0 0 nan nan 0 0 1 1 2 3 5 5 7 9 13 15 15 18 20 23 23 27 30 32 32 36 37 37 40 46 58 58 68
nan nan nan nan nan nan nan nan nan nan nan nan nan nan nan nan nan nan nan nan nan nan nan nan nan nan nan nan nan nan nan nan nan nan nan nan nan nan nan nan nan nan nan nan nan nan nan nan nan nan nan nan nan nan nan nan nan nan nan 0 0 1 3 6 6 8 13 16 19 19 21 25 28 28 30 33 35 35 38 38 38 42 46 56 56 65
nan nan nan nan nan nan nan nan nan nan nan nan nan nan nan nan nan nan nan nan nan nan nan nan nan nan nan nan nan nan nan nan nan nan nan nan nan nan nan nan nan nan nan nan nan nan nan nan nan nan nan nan nan nan nan nan nan nan nan 0 0 2 4 8 8 12 15 19 22 22 24 28 32 32 35 35 37 37 39 40 40 43 47 55 55 61
nan nan nan nan nan nan nan nan nan nan nan nan nan nan nan nan nan nan nan nan nan nan nan nan nan nan nan nan nan nan nan nan nan nan nan nan nan nan nan nan nan nan nan nan nan nan nan nan nan nan nan nan nan nan nan nan nan nan 0 2 2 4 8 12 12 15 20 24 26 26 27 29 32 32 34 36 37 37 39 42 42 44 45 51 51 55
nan nan nan nan nan nan nan nan nan nan nan nan nan nan nan nan nan nan nan nan nan nan nan nan nan nan nan nan nan nan nan nan nan nan nan nan nan nan nan nan nan nan nan nan nan nan nan nan nan nan nan nan nan nan nan nan nan 0 2 4 4 8 11 15 15 18 22 24 26 26 28 29 31 31 32 34 36 36 37 39 39 42 43 46 46 48
nan nan nan nan nan nan nan nan nan nan nan nan nan nan nan nan nan nan nan nan nan nan nan nan nan nan nan nan nan nan nan nan nan nan nan nan nan nan nan nan nan nan nan nan nan nan nan nan nan nan nan nan nan nan nan 0 0 1 3 7 7 10 13 16 16 20 23 23 26 26 26 27 29 29 30 29 33 33 34 37 37 40 43 46 46 45
nan nan nan nan nan nan nan nan nan nan nan nan nan nan nan nan nan nan nan nan nan nan nan nan nan nan nan nan nan nan nan nan nan nan nan nan nan nan nan nan nan nan nan nan nan nan nan nan nan nan nan nan nan nan nan 0 0 1 4 6 6 10 13 17 17 19 22 23 25 25 25 28 27 27 26 30 30 30 33 36 36 39 41 43 43 45
nan nan nan nan nan nan nan nan nan nan nan nan nan nan nan nan nan nan nan nan nan nan nan nan nan nan nan nan nan nan nan nan nan nan nan nan nan nan nan nan nan nan nan nan nan nan nan nan nan nan nan nan nan nan nan 0 0 1 3 5 5 8 12 15 15 18 20 23 23 23 25 26 27 27 28 30 30 30 32 34 34 36 39 41 41 44
nan nan nan nan nan nan nan nan nan nan nan nan nan nan nan nan nan nan nan nan nan nan nan nan nan nan nan nan nan nan nan nan nan nan nan nan nan nan nan nan nan nan nan nan nan nan nan nan nan nan nan nan nan nan nan 0 0 1 3 5 5 8 11 14 14 17 20 22 22 22 23 23 24 24 27 31 30 30 31 34 34 35 37 40 40 42
nan nan nan nan nan nan nan nan nan nan nan nan nan nan nan nan nan nan nan nan nan nan nan nan nan nan nan nan nan nan nan nan nan nan nan nan nan nan nan nan nan nan nan nan nan nan nan nan nan nan nan nan nan nan nan 0 0 1 2 4 4 7 9 11 11 13 17 18 19 19 20 21 21 21 24 26 30 30 35 35 35 35 39 40 40 41
nan nan nan nan nan nan nan nan nan nan nan nan nan nan nan nan nan nan nan nan nan nan nan nan nan nan 0 0 nan nan nan nan nan nan nan nan nan nan nan nan nan nan nan nan nan nan nan nan nan nan nan nan nan nan nan nan nan 0 1 2 2 4 5 6 6 10 13 15 17 17 20 20 21 21 24 25 28 28 32 35 35 36 37 39 39 41
nan nan nan nan nan nan nan nan nan nan nan nan nan nan nan nan nan nan nan nan nan nan 7 8 8 2 nan nan nan nan nan nan nan nan nan nan nan nan nan nan nan nan nan nan nan nan nan nan nan nan nan nan nan nan nan nan nan 0 0 1 1 2 4 7 7 11 14 16 18 18 20 20 24 24 24 25 29 29 29 33 33 35 37 40 40 41
nan nan nan nan nan nan nan nan nan nan nan nan nan nan nan nan nan nan nan nan nan nan 3 0 0 nan nan nan nan nan nan nan nan nan nan nan nan nan nan nan nan nan nan nan nan nan nan nan nan nan nan nan nan nan nan nan nan nan nan 0 0 2 4 9 9 12 15 16 18 18 19 21 22 22 22 24 23 23 25 30 30 35 35 39 39 39
nan nan nan nan nan nan nan nan nan nan nan nan nan nan nan nan nan nan nan nan nan nan 1 nan nan nan nan nan nan nan nan nan nan nan nan nan nan nan nan nan nan nan nan nan nan nan nan nan nan nan nan nan nan nan nan nan nan nan nan 0 0 2 5 8 8 10 11 13 14 14 15 17 18 18 17 21 21 21 23 27 27 31 33 38 38 35
nan nan nan nan nan nan nan 2 3 3 nan nan nan nan nan nan 1 1 1 1 1 1 nan nan nan nan nan nan nan nan nan nan nan nan nan nan nan nan nan nan nan nan nan nan nan nan nan nan nan nan nan nan nan nan nan nan nan nan nan 0 0 2 4 4 4 5 5 6 8 8 10 12 13 13 15 18 21 21 24 27 27 31 34 31 31 34
nan nan nan nan nan 1 3 5 12 12 17 8 1 1 nan nan 1 1 3 3 3 0 0 0 0 nan nan nan nan nan nan nan nan nan nan nan nan nan nan nan nan nan nan nan nan nan nan nan nan nan nan nan nan nan nan nan nan nan 0 0 0 1 1 1 1 2 3 4 6 6 8 11 13 13 14 18 21 21 23 25 25 31 33 32 32 31
nan nan nan 0 0 1 3 5 9 9 14 15 18 18 7 0 1 1 2 0 0 nan 0 0 0 nan nan nan nan nan nan nan nan nan nan nan nan nan nan nan nan nan nan nan nan nan nan nan nan nan nan nan nan nan nan nan nan nan 0 0 0 0 0 0 0 2 3 4 6 6 8 11 13 13 15 19 21 21 23 26 26 31 34 23 23 7
0 0 1 3 3 4 6 8 8 8 11 12 14 14 5 nan 0 0 0 nan nan nan nan 0 0 nan nan nan nan nan nan nan nan nan nan nan nan nan nan nan nan nan nan nan nan nan nan nan nan nan nan nan nan nan nan nan nan nan nan nan nan nan nan 0 0 1 3 4 6 6 8 10 13 13 14 17 20 20 23 26 26 31 24 12 12 1
nan nan nan nan nan 2 1 nan 4 4 9 9 13 13 12 0 nan nan nan nan nan nan nan 0 0 nan nan nan nan nan nan nan nan nan nan nan nan nan nan nan nan nan nan nan nan nan nan nan nan nan nan nan nan nan nan nan nan nan nan nan nan nan 0 0 0 1 3 4 6 6 8 10 13 13 14 16 19 19 21 25 25 22 9 2 2 0
nan nan nan nan nan nan nan nan nan nan 5 7 10 10 1 nan nan nan nan nan nan nan nan 0 0 nan 0 nan nan nan nan nan nan nan nan nan nan nan nan nan nan nan nan nan nan nan nan nan nan nan nan nan nan nan nan nan nan nan nan nan nan nan nan 0 0 1 2 4 6 6 7 9 10 10 12 12 14 14 17 21 21 18 4 1 1 0
nan nan nan nan nan nan nan nan nan nan nan nan nan nan nan nan nan nan nan nan nan nan nan 0 0 0 0 0 nan nan nan nan nan nan nan nan nan nan nan nan nan nan nan nan nan nan nan nan nan nan nan nan nan nan nan nan nan nan nan nan nan nan nan nan nan 0 nan 1 3 3 4 4 5 5 5 7 9 9 12 16 16 17 5 1 1 1
nan nan nan nan nan nan nan nan nan nan nan nan nan nan nan nan nan nan nan nan nan nan nan nan nan nan nan 0 0 0 nan nan nan nan 0 nan nan nan nan nan nan nan nan nan nan 0 nan nan nan nan nan nan nan nan nan nan nan nan nan nan nan nan nan nan nan nan nan nan nan nan 1 2 3 3 4 6 8 8 11 16 16 21 19 2 2 2
nan nan nan nan nan nan nan nan nan nan nan nan nan nan nan nan nan nan nan nan nan nan nan nan nan nan nan nan nan nan nan nan nan nan 1 nan nan nan nan nan nan nan nan nan nan nan nan nan nan nan nan nan nan nan nan nan nan nan nan nan nan nan nan nan nan nan nan nan nan nan nan nan 0 0 1 3 5 5 11 19 19 28 33 19 19 9
nan nan nan nan nan nan nan nan nan nan nan nan nan nan nan nan nan nan nan nan nan nan nan nan nan nan nan nan nan nan nan nan nan nan 1 nan nan nan nan nan nan nan nan nan nan nan nan nan nan nan nan nan nan nan nan nan nan nan nan nan nan nan nan nan nan nan nan nan nan nan nan nan nan nan nan 1 6 6 15 23 23 31 37 42 42 30
nan nan nan nan nan nan nan nan nan nan nan nan nan nan nan nan nan nan nan nan nan nan nan nan nan nan nan nan nan nan nan nan nan nan 1 nan nan nan nan nan nan nan nan nan nan nan nan nan nan 1 1 nan nan nan nan nan nan nan nan nan nan nan nan nan nan nan nan nan nan nan nan nan nan nan nan 3 10 10 15 19 19 23 26 33 33 35
nan nan nan nan nan nan nan nan nan nan nan nan nan nan nan nan nan nan nan nan nan nan nan nan nan nan 0 nan nan nan nan nan nan nan nan nan nan nan nan nan nan 0 nan nan nan nan nan nan nan nan nan nan nan nan nan nan nan nan nan nan nan nan nan nan nan nan nan nan nan nan nan nan nan nan nan 3 3 3 7 11 11 10 17 24 24 33
nan nan nan nan nan nan nan nan nan nan nan nan nan nan nan nan nan nan nan nan nan nan nan nan nan nan 1 3 nan nan nan nan nan nan nan nan nan nan nan nan nan 0 nan nan nan nan nan nan nan nan nan nan nan nan nan nan nan nan nan nan nan nan nan nan nan nan nan nan nan nan nan nan nan nan nan nan nan nan nan nan nan nan 8 11 11 27
nan nan nan nan nan nan nan nan nan nan nan nan nan nan nan nan nan nan nan nan nan nan nan nan nan nan nan nan nan nan nan nan nan nan nan nan nan nan nan nan nan nan nan nan nan nan nan nan nan nan nan nan nan nan nan nan nan nan nan nan nan nan nan nan nan nan nan nan nan nan nan nan nan nan nan nan nan nan nan nan nan nan nan nan nan 5
nan nan nan nan nan nan nan nan nan nan nan nan nan nan nan nan nan nan nan nan nan nan nan nan nan nan nan nan 0 0 0 nan nan nan nan nan nan nan nan nan nan nan nan nan nan nan nan nan nan nan nan nan nan nan nan nan nan nan 0 nan nan nan nan nan nan nan nan nan nan nan nan nan nan nan nan nan nan nan nan nan nan nan nan nan nan nan
nan nan nan nan nan nan nan nan nan nan nan nan nan nan nan nan nan nan nan nan nan nan nan nan nan nan nan nan nan nan nan nan nan nan nan nan nan nan nan nan nan nan nan nan nan nan nan nan nan nan nan nan nan nan nan nan nan 1 5 nan nan nan nan nan nan nan nan nan nan nan nan nan nan nan nan nan nan nan nan nan nan nan nan nan nan nan
nan nan nan nan nan nan nan nan nan nan nan nan nan nan nan nan nan nan nan nan nan nan nan nan nan nan nan nan nan nan nan nan nan nan nan nan nan nan nan nan nan nan nan nan nan nan nan nan nan nan nan nan nan nan nan nan nan nan 1 nan nan nan nan nan nan nan nan nan nan nan nan nan nan nan nan nan nan nan nan nan nan nan nan nan nan nan
nan nan nan nan nan nan nan 0 nan nan nan nan nan nan nan nan nan nan nan nan nan nan nan 0 0 nan 0 nan nan nan nan nan nan nan nan nan nan nan nan nan nan nan nan nan nan nan nan nan nan nan nan nan nan nan nan nan nan nan nan 0 0 nan nan nan nan nan nan nan nan nan nan nan nan nan nan nan nan nan nan nan nan nan 0 nan nan nan
nan nan nan nan nan nan nan nan nan nan nan nan nan nan nan nan nan nan 0 0 0 0 nan 0 0 0 nan nan nan nan nan nan nan nan nan nan nan nan nan nan nan nan nan nan nan nan nan nan nan nan nan nan nan nan nan nan nan nan nan nan nan nan nan nan nan nan nan nan nan nan nan nan nan nan nan nan nan nan nan nan nan nan nan nan nan nan
nan 1 0 nan nan nan nan nan nan nan nan nan nan nan nan nan 1 1 nan nan nan nan nan 0 0 nan nan nan nan nan nan nan nan nan nan nan 7 7 nan nan nan nan nan nan nan nan nan nan nan nan nan nan nan nan nan nan nan nan 0 1 1 0 nan nan nan nan nan nan nan nan nan nan nan nan nan nan nan nan nan nan nan nan nan nan nan nan
0 0 0 nan nan nan 0 0 nan nan nan nan nan nan nan nan nan nan nan nan nan nan nan 0 0 nan nan nan nan nan nan nan nan nan nan nan nan nan nan nan nan nan nan nan nan nan nan nan nan nan nan nan 0 0 0 nan nan nan nan 0 0 nan nan nan nan nan nan nan nan nan nan nan nan nan nan nan nan nan nan nan nan nan nan nan nan nan
nan nan nan nan nan nan nan nan nan nan 0 0 nan nan nan nan nan nan nan nan nan nan nan 0 0 nan nan nan nan nan nan nan nan nan nan nan nan nan nan nan nan nan nan nan nan nan nan nan nan nan nan nan nan nan nan nan nan nan nan nan nan nan nan nan nan nan nan nan nan nan nan nan nan nan nan nan nan nan nan 0 0 0 nan nan nan nan
1 0 nan nan nan 0 0 0 nan nan nan nan nan nan nan nan nan nan nan nan nan 0 1 nan nan nan nan nan nan nan nan nan nan nan nan nan nan nan nan nan nan nan nan nan nan 0 nan nan nan nan nan nan nan nan nan nan nan nan nan nan nan nan nan nan nan nan nan nan nan nan nan nan nan nan nan nan 0 0 1 1 1 0 0 0 0 0
nan 0 0 0 0 nan nan 0 nan nan nan nan nan nan nan 0 8 8 0 nan nan nan nan nan nan nan nan nan nan nan nan nan nan nan nan nan nan nan nan nan nan nan nan nan nan nan nan nan nan nan nan nan nan nan nan nan nan nan nan nan nan nan nan nan nan nan nan nan nan nan nan nan nan nan nan 0 1 1 0 0 0 nan 0 nan nan nan
nan nan 0 0 0 nan nan nan nan nan nan nan nan nan nan nan nan nan nan nan nan nan nan nan nan nan nan nan nan nan nan nan nan nan nan nan nan nan nan nan nan nan nan nan nan nan nan nan nan 1 6 2 nan nan nan nan nan nan nan nan nan nan nan nan nan nan nan nan nan nan nan 0 1 1 0 0 0 0 0 0 0 nan nan nan nan nan
0 nan 0 nan nan nan nan nan nan nan nan nan nan nan nan nan nan nan nan nan nan nan nan nan nan nan nan nan nan nan nan nan nan nan nan nan nan nan nan nan nan nan nan nan nan nan nan nan nan nan 2 16 6 6 nan nan nan nan nan nan nan nan nan nan nan nan nan nan nan nan 0 0 0 0 nan nan nan nan nan nan nan nan nan nan nan nan
CIN
nan nan nan nan nan nan nan nan nan nan nan nan nan nan nan nan nan nan nan nan nan nan nan nan nan nan nan nan nan nan nan nan nan nan nan nan 0 0 0 0 0 0 0 0 0 0 0 0 0 0 0 0 0 0 0 0 0 0 0 0 0 0 0 0 0 0 0 0 0 0 0 0 0 0 0 0 0 0 0 0 0 0 0 0 0 0
nan -4 nan nan nan nan nan nan nan nan nan nan nan nan nan nan nan nan nan nan nan nan nan nan nan nan nan nan nan nan nan nan nan nan nan nan 0 0 0 0 0 0 0 0 0 0 0 0 0 0 0 0 0 0 0 0 0 0 0 0 0 0 0 0 0 0 0 0 0 0 0 0 0 0 0 0 0 0 0 0 0 0 0 0 0 0
nan nan nan nan nan nan nan nan nan nan nan nan nan nan nan nan nan nan nan nan nan nan nan nan nan nan nan nan nan nan nan nan nan nan nan 0 0 0 0 0 0 0 0 0 0 0 0 0 0 0 0 0 0 0 0 0 0 0 0 0 0 0 0 0 0 0 0 0 0 0 0 0 0 0 0 0 0 0 0 0 0 0 0 0 0 0
nan nan nan nan nan nan nan nan nan nan nan nan nan nan nan nan nan nan nan nan nan nan nan nan nan nan nan nan nan nan nan nan nan nan nan 0 0 0 0 0 0 0 0 0 0 0 0 0 0 0 0 0 0 0 0 0 0 0 0 0 0 0 0 0 0 0 0 0 0 0 0 0 0 0 0 0 0 0 0 0 0 0 0 0 0 0
nan nan nan nan nan nan nan nan nan nan nan nan nan nan nan nan nan nan nan nan nan nan nan nan nan nan nan nan nan nan nan nan nan nan nan 0 0 0 0 0 0 0 0 0 0 0 0 0 0 0 0 0 0 0 0 0 0 0 0 0 0 0 0 0 0 0 0 0 0 0 0 0 0 0 0 0 0 0 0 0 0 0 0 0 0 0
nan nan nan nan nan nan nan nan nan nan nan nan nan nan nan nan nan nan nan nan nan nan nan nan nan nan nan nan nan nan nan nan nan nan 0 0 0 0 0 0 0 0 0 0 0 0 0 0 0 0 0 0 0 0 0 0 0 0 0 0 0 0 0 0 0 0 0 0 0 0 0 0 0 0 0 0 0 0 0 0 0 0 0 0 0 0
nan nan nan nan nan nan nan nan nan nan nan nan nan nan nan nan nan nan nan nan nan nan nan nan nan nan nan nan nan nan nan nan nan nan nan 0 0 0 0 0 0 0 0 0 0 0 0 0 0 0 0 0 0 0 0 0 0 0 0 0 0 0 0 0 0 0 0 0 0 0 0 0 0 0 0 0 0 0 0 0 0 0 0 0 0 0
nan nan nan nan nan nan nan nan nan nan nan nan nan nan nan nan nan nan nan nan nan nan nan nan nan nan nan nan nan nan nan nan nan nan nan nan nan nan nan 0 0 0 0 0 0 0 0 0 0 0 0 0 0 0 0 0 0 0 0 0 0 0 0 0 0 0 0 0 0 0 0 0 0 0 0 0 0 0 0 0 0 0 0 0 0 0
nan nan nan nan nan nan nan nan nan nan nan nan nan nan nan nan nan nan nan nan nan nan nan nan nan nan nan nan nan nan nan nan nan nan nan nan nan nan nan 0 0 0 0 0 0 0 0 0 0 0 0 0 0 0 0 0 0 0 0 0 0 0 0 0 0 0 0 0 0 0 0 0 0 0 0 0 0 0 0 0 0 0 0 0 0 0
nan nan nan nan nan nan nan nan nan nan nan nan nan nan nan nan nan nan nan nan nan nan nan nan nan nan nan nan nan nan nan nan nan nan nan nan 0 0 -3 -3 -3 -15 0 0 0 0 0 0 0 0 0 0 0 0 0 0 0 0 0 0 0 0 0 0 0 0 0 0 0 0 0 0 0 0 0 0 0 0 0 0 0 0 0 0 0 0
nan nan nan nan nan nan nan nan nan nan nan nan nan nan nan nan nan nan nan nan nan nan nan nan nan nan nan nan nan nan nan nan nan nan nan nan nan nan -3 -12 -12 -6 0 0 0 0 0 0 0 0 0 0 0 0 0 0 0 0 0 0 0 0 0 0 0 0 0 0 0 0 0 0 0 0 0 0 0 0 0 0 0 0 0 0 0 0
nan nan nan nan nan nan nan nan nan nan nan nan nan nan nan nan nan nan nan nan nan nan nan nan nan nan nan nan nan nan nan nan nan nan nan nan nan nan nan nan nan nan nan nan nan nan nan nan nan nan nan nan 0 0 0 nan nan 0 0 0 0 0 0 0 0 0 0 0 0 0 0 0 0 0 0 0 0 0 0 0 0 0 0 0 0 0
nan nan nan nan nan nan nan nan nan nan nan nan nan nan nan nan nan nan nan nan nan nan nan nan nan nan nan nan nan nan nan nan nan nan nan nan nan nan nan nan nan nan nan nan nan nan nan nan nan nan nan nan nan nan nan nan nan nan nan 0 0 0 0 0 0 0 0 0 0 0 0 0 0 0 0 0 0 0 0 0 0 0 0 0 0 0
nan nan nan nan nan nan nan nan nan nan nan nan nan nan nan nan nan nan nan nan nan nan nan nan nan nan nan nan nan nan nan nan nan nan nan nan nan nan nan nan nan nan nan nan nan nan nan nan nan nan nan nan nan nan nan nan nan nan nan 0 0 0 0 0 0 0 0 0 0 0 0 0 0 0 0 0 0 0 0 0 0 0 0 0 0 0
nan nan nan nan nan nan nan nan nan nan nan nan nan nan nan nan nan nan nan nan nan nan nan nan nan nan nan nan nan nan nan nan nan nan nan nan nan nan nan nan nan nan nan nan nan nan nan nan nan nan nan nan nan nan nan nan nan nan 0 0 0 0 0 0 0 0 0 0 0 0 0 0 0 0 0 0 0 0 0 0 0 0 0 0 0 0
nan nan nan nan nan nan nan nan nan nan nan nan nan nan nan nan nan nan nan nan nan nan nan nan nan nan nan nan nan nan nan nan nan nan nan nan nan nan nan nan nan nan nan nan nan nan nan nan nan nan nan nan nan nan nan nan nan 0 0 0 0 0 0 0 0 0 0 0 0 0 0 0 0 0 0 0 0 0 0 0 0 0 0 0 0 0
nan nan nan nan nan nan nan nan nan nan nan nan nan nan nan nan nan nan nan nan nan nan nan nan nan nan nan nan nan nan nan nan nan nan nan nan nan nan nan nan nan nan nan nan nan nan nan nan nan nan nan nan nan nan nan 0 0 0 0 0 0 0 0 0 0 0 0 0 0 0 0 0 0 0 0 0 0 0 0 0 0 0 0 0 0 0
nan nan nan nan nan nan nan nan nan nan nan nan nan nan nan nan nan nan nan nan nan nan nan nan nan nan nan nan nan nan nan nan nan nan nan nan nan nan nan nan nan nan nan nan nan nan nan nan nan nan nan nan nan nan nan 0 0 0 0 0 0 0 0 0 0 0 0 0 0 0 0 0 0 0 0 0 0 0 0 0 0 0 0 0 0 0
nan nan nan nan nan nan nan nan nan nan nan nan nan nan nan nan nan nan nan nan nan nan nan nan nan nan nan nan nan nan nan nan nan nan nan nan nan nan nan nan nan nan nan nan nan nan nan nan nan nan nan nan nan nan nan 0 0 0 0 0 0 0 0 0 0 0 0 0 0 0 0 0 0 0 0 0 0 0 0 0 0 0 0 0 0 0
nan nan nan nan nan nan nan nan nan nan nan nan nan nan nan nan nan nan nan nan nan nan nan nan nan nan nan nan nan nan nan nan nan nan nan nan nan nan nan nan nan nan nan nan nan nan nan nan nan nan nan nan nan nan nan 0 0 0 0 0 0 0 0 0 0 0 0 0 0 0 0 0 0 0 0 0 0 0 0 0 0 0 0 0 0 0
nan nan nan nan nan nan nan nan nan nan nan nan nan nan nan nan nan nan nan nan nan nan nan nan nan nan nan nan nan nan nan nan nan nan nan nan nan nan nan nan nan nan nan nan nan nan nan nan nan nan nan nan nan nan nan 0 0 0 0 0 0 0 0 0 0 0 0 0 0 0 0 0 0 0 0 0 0 0 0 0 0 0 0 0 0 0
nan nan nan nan nan nan nan nan nan nan nan nan nan nan nan nan nan nan nan nan nan nan nan nan nan nan -24 -26 nan nan nan nan nan nan nan nan nan nan nan nan nan nan nan nan nan nan nan nan nan nan nan nan nan nan nan nan nan 0 0 0 0 0 0 0 0 0 0 0 0 0 0 0 0 0 0 0 0 0 0 0 0 0 0 0 0 0
nan nan nan nan nan nan nan nan nan nan nan nan nan nan nan nan nan nan nan nan nan nan -6 -4 -4 -15 nan nan nan nan nan nan nan nan nan nan nan nan nan nan nan nan nan nan nan nan nan nan nan nan nan nan nan nan nan nan nan 0 0 0 0 0 0 0 0 0 0 0 0 0 0 0 0 0 0 0 0 0 0 0 0 0 0 0 0 0
nan nan nan nan nan nan nan nan nan nan nan nan nan nan nan nan nan nan nan nan nan nan -10 -26 -26 nan nan nan nan nan nan nan nan nan nan nan nan nan nan nan nan nan nan nan nan nan nan nan nan nan nan nan nan nan nan nan nan nan nan 0 0 0 0 0 0 0 0 0 0 0 0 0 0 0 0 0 0 0 0 0 0 0 0 0 0 0
nan nan nan nan nan nan nan nan nan nan nan nan nan nan nan nan nan nan nan nan nan nan -18 nan nan nan nan nan nan nan nan nan nan nan nan nan nan nan nan nan nan nan nan nan nan nan nan nan nan nan nan nan nan nan nan nan nan nan nan 0 0 0 0 0 0 0 0 0 0 0 0 0 0 0 0 0 0 0 0 0 0 0 0 0 0 0
nan nan nan nan nan nan nan -2 -5 -5 nan nan nan nan nan nan -36 -36 -29 -19 -19 -17 nan nan nan nan nan nan nan nan nan nan nan nan nan nan nan nan nan nan nan nan nan nan nan nan nan nan nan nan nan nan nan nan nan nan nan nan nan 0 0 0 0 0 0 0 0 0 0 0 0 0 0 0 0 0 0 0 0 0 0 0 0 0 0 0
nan nan nan nan nan 0 0 0 0 0 0 -5 -33 -33 nan nan -25 -25 -12 -10 -10 -19 -14 -7 -7 nan nan nan nan nan nan nan nan nan nan nan nan nan nan nan nan nan nan nan nan nan nan nan nan nan nan nan nan nan nan nan nan nan 0 0 0 0 0 0 0 0 0 0 0 0 0 0 0 0 0 0 0 0 0 0 0 0 0 0 0 0
nan nan nan 0 0 0 0 0 0 0 0 0 0 0 -16 -35 -15 -15 -7 -13 -13 nan -12 -6 -6 nan nan nan nan nan nan nan nan nan nan nan nan nan nan nan nan nan nan nan nan nan nan nan nan nan nan nan nan nan nan nan nan nan 0 0 0 0 0 0 0 0 0 0 0 0 0 0 0 0 0 0 0 0 0 0 0 0 0 0 0 -16
0 0 0 0 0 0 0 0 0 0 0 0 0 0 -9 nan -11 -11 -11 nan nan nan nan -4 -4 nan nan nan nan nan nan nan nan nan nan nan nan nan nan nan nan nan nan nan nan nan nan nan nan nan nan nan nan nan nan nan nan nan nan nan nan nan nan 0 0 0 0 0 0 0 0 0 0 0 0 0 0 0 0 0 0 0 0 -5 -5 -28
nan nan nan nan nan 0 -0 nan -2 -2 0 0 0 0 0 -29 nan nan nan nan nan nan nan -4 -4 nan nan nan nan nan nan nan nan nan nan nan nan nan nan nan nan nan nan nan nan nan nan nan nan nan nan nan nan nan nan nan nan nan nan nan nan nan 0 0 0 0 0 0 0 0 0 0 0 0 0 0 0 0 0 0 0 0 -7 -28 -28 -40
nan nan nan nan nan nan nan nan nan nan 0 0 0 0 -20 nan nan nan nan nan nan nan nan -5 -5 nan -7 nan nan nan nan nan nan nan nan nan nan nan nan nan nan nan nan nan nan nan nan nan nan nan nan nan nan nan nan nan nan nan nan nan nan nan nan 0 0 0 0 0 0 0 0 0 0 0 0 0 0 0 0 0 0 0 -17 -35 -35 -41
nan nan nan nan nan nan nan nan nan nan nan nan nan nan nan nan nan nan nan nan nan nan nan -12 -12 -10 -9 -7 nan nan nan nan nan nan nan nan nan nan nan nan nan nan nan nan nan nan nan nan nan nan nan nan nan nan nan nan nan nan nan nan nan nan nan nan nan -0 nan 0 0 0 0 0 0 0 0 0 0 0 0 0 0 0 -9 -29 -29 -30
nan nan nan nan nan nan nan nan nan nan nan nan nan nan nan nan nan nan nan nan nan nan nan nan nan nan nan -10 -9 -9 nan nan nan nan -14 nan nan nan nan nan nan nan nan nan nan -15 nan nan nan nan nan nan nan nan nan nan nan nan nan nan nan nan nan nan nan nan nan nan nan nan 0 0 0 0 0 0 0 0 0 0 0 0 0 -22 -22 -24
nan nan nan nan nan nan nan nan nan nan nan nan nan nan nan nan nan nan nan nan nan nan nan nan nan nan nan nan nan nan nan nan nan nan -7 nan nan nan nan nan nan nan nan nan nan nan nan nan nan nan nan nan nan nan nan nan nan nan nan nan nan nan nan nan nan nan nan nan nan nan nan nan 0 0 0 0 0 0 0 0 0 0 0 -1 -1 -14
nan nan nan nan nan nan nan nan nan nan nan nan nan nan nan nan nan nan nan nan nan nan nan nan nan nan nan nan nan nan nan nan nan nan -10 nan nan nan nan nan nan nan nan nan nan nan nan nan nan nan nan nan nan nan nan nan nan nan nan nan nan nan nan nan nan nan nan nan nan nan nan nan nan nan nan 0 0 0 0 0 0 0 0 0 0 0
nan nan nan nan nan nan nan nan nan nan nan nan nan nan nan nan nan nan nan nan nan nan nan nan nan nan nan nan nan nan nan nan nan nan -4 nan nan nan nan nan nan nan nan nan nan nan nan nan nan -1 -0 nan nan nan nan nan nan nan nan nan nan nan nan nan nan nan nan nan nan nan nan nan nan nan nan 0 0 0 0 0 0 0 0 0 0 0
nan nan nan nan nan nan nan nan nan nan nan nan nan nan nan nan nan nan nan nan nan nan nan nan nan nan -16 nan nan nan nan nan nan nan nan nan nan nan nan nan nan -3 nan nan nan nan nan nan nan nan nan nan nan nan nan nan nan nan nan nan nan nan nan nan nan nan nan nan nan nan nan nan nan nan nan 0 0 0 0 0 0 0 0 0 0 0
nan nan nan nan nan nan nan nan nan nan nan nan nan nan nan nan nan nan nan nan nan nan nan nan nan nan -12 -6 nan nan nan nan nan nan nan nan nan nan nan nan nan -4 nan nan nan nan nan nan nan nan nan nan nan nan nan nan nan nan nan nan nan nan nan nan nan nan nan nan nan nan nan nan nan nan nan nan nan nan nan nan nan nan 0 0 0 0
nan nan nan nan nan nan nan nan nan nan nan nan nan nan nan nan nan nan nan nan nan nan nan nan nan nan nan nan nan nan nan nan nan nan nan nan nan nan nan nan nan nan nan nan nan nan nan nan nan nan nan nan nan nan nan nan nan nan nan nan nan nan nan nan nan nan nan nan nan nan nan nan nan nan nan nan nan nan nan nan nan nan nan nan nan -2
nan nan nan nan nan nan nan nan nan nan nan nan nan nan nan nan nan nan nan nan nan nan nan nan nan nan nan nan -14 -14 -19 nan nan nan nan nan nan nan nan nan nan nan nan nan nan nan nan nan nan nan nan nan nan nan nan nan nan nan -3 nan nan nan nan nan nan nan nan nan nan nan nan nan nan nan nan nan nan nan nan nan nan nan nan nan nan nan
nan nan nan nan nan nan nan nan nan nan nan nan nan nan nan nan nan nan nan nan nan nan nan nan nan nan nan nan nan nan nan nan nan nan nan nan nan nan nan nan nan nan nan nan nan nan nan nan nan nan nan nan nan nan nan nan nan -2 0 nan nan nan nan nan nan nan nan nan nan nan nan nan nan nan nan nan nan nan nan nan nan nan nan nan nan nan
nan nan nan nan nan nan nan nan nan nan nan nan nan nan nan nan nan nan nan nan nan nan nan nan nan nan nan nan nan nan nan nan nan nan nan nan nan nan nan nan nan nan nan nan nan nan nan nan nan nan nan nan nan nan nan nan nan nan -2 nan nan nan nan nan nan nan nan nan nan nan nan nan nan nan nan nan nan nan nan nan nan nan nan nan nan nan
nan nan nan nan nan nan nan -18 nan nan nan nan nan nan nan nan nan nan nan nan nan nan nan -13 -13 nan -9 nan nan nan nan nan nan nan nan nan nan nan nan nan nan nan nan nan nan nan nan nan nan nan nan nan nan nan nan nan nan nan nan -7 -7 nan nan nan nan nan nan nan nan nan nan nan nan nan nan nan nan nan nan nan nan nan -7 nan nan nan
nan nan nan nan nan nan nan nan nan nan nan nan nan nan nan nan nan nan -11 -12 -12 -9 nan -15 -15 -14 nan nan nan nan nan nan nan nan nan nan nan nan nan nan nan nan nan nan nan nan nan nan nan nan nan nan nan nan nan nan nan nan nan nan nan nan nan nan nan nan nan nan nan nan nan nan nan nan nan nan nan nan nan nan nan nan nan nan nan nan
nan -6 -9 nan nan nan nan nan nan nan nan nan nan nan nan nan -12 -12 nan nan nan nan nan -16 -16 nan nan nan nan nan nan nan nan nan nan nan -8 -8 nan nan nan nan nan nan nan nan nan nan nan nan nan nan nan nan nan nan nan nan -5 -6 -6 -8 nan nan nan nan nan nan nan nan nan nan nan nan nan nan nan nan nan nan nan nan nan nan nan nan
-9 -11 -14 nan nan nan -11 -11 nan nan nan nan nan nan nan nan nan nan nan nan nan nan nan -16 -16 nan nan nan nan nan nan nan nan nan nan nan nan nan nan nan nan nan nan nan nan nan nan nan nan nan nan nan -10 -10 -12 nan nan nan nan -6 -6 nan nan nan nan nan nan nan nan nan nan nan nan nan nan nan nan nan nan nan nan nan nan nan nan nan
nan nan nan nan nan nan nan nan nan nan -15 -12 nan nan nan nan nan nan nan nan nan nan nan -14 -14 nan nan nan nan nan nan nan nan nan nan nan nan nan nan nan nan nan nan nan nan nan nan nan nan nan nan nan nan nan nan nan nan nan nan nan nan nan nan nan nan nan nan nan nan nan nan nan nan nan nan nan nan nan nan -25 -25 -28 nan nan nan nan
-11 -17 nan nan nan -16 -14 -12 nan nan nan nan nan nan nan nan nan nan nan nan nan -14 -6 nan nan nan nan nan nan nan nan nan nan nan nan nan nan nan nan nan nan nan nan nan nan -16 nan nan nan nan nan nan nan nan nan nan nan nan nan nan nan nan nan nan nan nan nan nan nan nan nan nan nan nan nan nan -13 -13 -14 -19 -19 -27 -29 -31 -31 -31
nan -17 -15 -13 -13 nan nan -11 nan nan nan nan nan nan nan -12 0 0 -11 nan nan nan nan nan nan nan nan nan nan nan nan nan nan nan nan nan nan nan nan nan nan nan nan nan nan nan nan nan nan nan nan nan nan nan nan nan nan nan nan nan nan nan nan nan nan nan nan nan nan nan nan nan nan nan nan -12 -9 -9 -12 -16 -16 nan -28 nan nan nan
nan nan -12 -11 -11 nan nan nan nan nan nan nan nan nan nan nan nan nan nan nan nan nan nan nan nan nan nan nan nan nan nan nan nan nan nan nan nan nan nan nan nan nan nan nan nan nan nan nan nan -16 -8 -7 nan nan nan nan nan nan nan nan nan nan nan nan nan nan nan nan nan nan nan -31 -28 -28 -24 -13 -9 -9 -13 -15 -15 nan nan nan nan nan
-10 nan -11 nan nan nan nan nan nan nan nan nan nan nan nan nan nan nan nan nan nan nan nan nan nan nan nan nan nan nan nan nan nan nan nan nan nan nan nan nan nan nan nan nan nan nan nan nan nan nan -10 -0 -7 -7 nan nan nan nan nan nan nan nan nan nan nan nan nan nan nan nan -38 -34 -26 -26 nan nan nan nan nan nan nan nan nan nan nan nan
Wind_Speed
2 3 4 5 5 4 4 5 4 3 3 2 2 2 2 2 2 2 2 2 2 2 2 3 3 3 5 8 10 12 13 13 13 13 13 13 13 13 13 13 13 13 13 14 14 14 14 15 15 15 16 16 16 16 16 16 16 16 16 16 16 16 16 17 17 17 17 17 17 17 17 17 17 17 17 17 17 17 18 18 18 18 18 18 19 19
2 2 2 3 4 3 3 3 3 3 2 2 2 2 2 2 1 1 1 2 2 2 2 2 3 3 4 5 8 11 12 13 13 13 13 13 13 13 13 13 13 13 14 14 14 14 15 15 15 15 15 15 15 16 16 16 16 16 16 16 16 16 16 16 17 17 17 17 17 17 17 17 17 17 17 17 17 18 18 18 18 19 19 19 19 19
2 2 2 3 3 3 3 2 2 2 3 2 2 2 2 2 2 1 1 2 2 2 2 2 3 3 3 4 7 10 12 12 13 13 13 13 13 13 13 13 14 14 14 14 14 15 15 15 15 15 15 15 15 15 15 15 15 15 15 15 16 16 16 16 17 17 17 16 16 16 16 17 17 17 17 17 18 18 18 19 19 19 19 19 19 20
3 3 3 3 3 3 3 3 2 2 3 3 2 2 2 2 2 2 2 2 2 2 2 3 3 3 3 4 6 8 11 12 13 13 13 13 13 13 13 14 14 14 14 14 15 15 15 15 15 15 15 15 15 15 15 15 15 15 15 16 16 16 16 16 16 17 16 16 16 16 16 17 17 17 17 18 18 18 19 19 19 19 20 20 20 20
2 3 3 3 3 3 3 3 3 3 3 3 2 2 2 2 2 2 1 2 2 2 3 3 3 3 3 3 5 7 11 12 13 13 13 13 13 13 13 13 14 14 14 14 14 14 14 14 14 15 15 15 15 15 15 15 15 15 16 16 16 16 16 16 16 16 16 16 16 16 17 17 17 17 18 18 18 18 19 19 20 20 20 20 21 21
2 2 2 2 2 2 2 2 2 2 2 2 2 2 2 2 1 1 2 2 2 3 3 3 3 3 3 3 5 8 10 11 12 12 12 13 13 13 13 13 13 14 14 14 14 14 14 14 14 14 15 15 15 15 16 16 16 16 16 16 16 16 16 16 16 16 16 16 16 16 17 17 17 17 18 18 18 19 19 20 20 20 21 21 21 22
1 2 2 2 2 2 2 2 2 2 2 1 1 1 1 1 1 2 2 2 2 2 2 2 3 3 3 4 5 7 8 9 10 11 12 12 13 13 13 14 14 14 14 14 14 14 14 14 15 15 15 15 16 16 16 16 16 16 16 16 16 16 16 16 16 16 16 16 16 16 16 17 17 17 18 18 18 19 19 20 20 21 21 21 22 22
1 1 2 2 2 1 1 1 2 2 2 2 1 1 1 1 1 1 2 2 2 2 2 2 2 2 3 3 3 4 4 5 6 7 9 10 11 12 12 13 14 14 14 14 14 14 14 15 15 15 15 16 16 16 16 16 16 16 16 15 15 15 15 15 15 15 15 15 16 16 16 16 17 17 17 18 18 19 19 20 20 20 21 21 22 22
2 2 2 2 2 1 1 1 1 2 2 2 2 2 1 1 1 1 1 2 2 2 2 2 2 2 2 1 1 1 3 4 4 5 6 6 7 8 10 12 13 13 14 14 14 14 14 14 15 15 15 16 16 16 16 16 16 15 15 15 15 15 15 15 15 15 15 15 15 15 16 16 16 17 17 17 18 18 19 19 20 20 21 21 22 22
2 2 2 2 2 2 2 2 2 2 2 2 2 2 2 2 2 2 2 2 2 2 1 1 1 1 1 1 1 2 3 4 6 8 9 9 9 10 10 11 10 11 13 13 13 14 14 14 15 15 15 16 16 16 16 15 15 15 15 14 14 14 14 14 14 15 15 15 15 15 15 16 16 17 17 17 18 18 18 19 19 20 20 21 22 22
3 2 2 1 1 1 2 2 2 1 1 2 2 2 2 3 3 2 2 2 2 1 1 0 0 0 1 2 2 2 3 3 5 7 9 11 12 13 12 11 10 10 11 12 12 13 14 14 15 15 16 16 16 16 15 15 15 15 14 14 14 14 14 14 14 14 14 15 15 15 15 16 16 17 17 18 18 18 19 19 19 20 20 21 22 22
2 2 1 1 1 1 1 1 1 1 1 1 1 1 2 2 2 2 2 1 1 1 1 1 1 1 1 1 2 2 3 3 3 4 5 6 7 8 8 7 7 8 8 9 10 11 13 14 15 15 15 15 15 15 15 14 14 14 14 14 14 14 14 14 14 14 14 14 15 15 16 16 17 17 18 18 18 19 19 19 20 20 21 21 22 22
1 1 1 1 1 1 1 1 0 0 1 1 2 2 2 2 1 2 2 1 1 0 0 1 1 1 1 1 2 2 2 3 3 3 3 3 3 3 2 3 3 4 4 5 5 7 10 12 13 14 14 14 14 15 15 15 15 15 15 15 14 14 14 14 14 14 14 15 15 16 16 17 17 18 18 19 19 19 20 20 20 20 21 21 22 22
1 1 1 1 1 1 1 1 1 1 1 2 2 2 2 1 1 1 1 0 0 1 1 2 2 2 2 1 2 2 2 2 3 3 3 3 2 2 1 2 3 3 3 3 4 5 7 8 8 9 12 12 13 13 13 14 15 15 15 15 15 14 14 14 15 15 15 16 16 17 17 18 18 19 19 19 19 20 20 20 20 20 21 21 21 22
1 1 1 1 1 1 1 1 1 1 1 1 1 1 1 1 1 2 2 1 1 2 2 3 3 3 2 2 2 2 2 2 2 2 3 3 2 1 1 2 3 4 3 4 4 5 7 6 5 6 7 8 9 10 12 13 14 15 15 15 15 15 15 15 16 16 17 17 17 18 18 18 19 19 19 20 20 20 20 20 20 21 21 21 21 22
1 1 1 1 1 1 1 1 1 1 1 1 0 1 1 1 1 2 2 1 1 2 2 2 3 3 2 2 2 2 1 2 2 2 3 3 3 2 2 3 4 4 4 4 4 4 5 5 5 5 5 8 11 13 15 15 15 16 16 16 16 16 16 17 17 17 17 18 18 18 19 19 19 19 20 20 20 20 20 21 21 21 21 21 21 22
1 1 1 1 1 1 1 0 1 1 1 0 1 1 2 1 1 1 1 1 1 1 1 1 2 2 2 3 2 2 1 2 2 3 4 4 3 3 2 3 4 5 5 5 4 4 4 4 4 5 5 9 12 15 16 16 16 16 17 17 17 17 17 17 17 18 18 18 19 19 19 19 20 20 20 20 20 20 21 21 21 21 21 21 22 22
1 1 1 1 1 1 1 0 0 0 1 1 1 1 1 1 1 1 2 1 1 1 0 1 1 2 2 2 3 2 2 2 2 3 4 5 4 3 2 3 4 5 5 5 4 4 4 4 4 5 7 12 14 16 17 17 17 17 17 17 17 17 18 18 18 18 19 19 19 19 20 20 20 20 20 20 21 21 21 21 21 21 21 21 22 22
1 1 1 1 1 1 1 0 0 0 1 1 1 1 1 1 1 1 1 1 1 0 1 1 2 2 2 3 3 3 2 2 3 4 5 5 5 4 3 3 4 4 5 5 5 4 4 5 6 8 11 14 15 16 17 17 17 17 18 18 18 18 18 18 19 19 19 19 20 20 20 20 20 20 20 21 21 21 21 21 21 21 21 21 22 22
0 1 1 1 1 0 0 0 0 1 1 1 2 2 1 1 1 1 1 0 0 1 2 2 3 3 3 3 3 2 2 3 3 3 4 5 5 4 3 3 4 4 5 5 4 4 4 4 6 8 11 13 15 16 17 17 17 18 18 18 18 18 19 19 19 19 20 20 20 20 20 20 20 20 20 21 21 21 21 21 21 21 21 21 22 22
0 1 1 1 1 1 0 1 1 1 1 2 2 2 1 1 1 0 0 0 1 1 2 2 3 3 2 3 3 3 2 3 3 3 4 5 5 4 3 3 3 4 5 5 4 4 4 4 4 5 7 11 14 16 17 17 18 18 18 19 19 19 19 20 20 20 20 20 20 20 20 20 20 20 20 21 21 21 21 21 21 21 21 22 22 22
1 1 1 1 1 1 1 1 1 1 2 3 2 1 1 1 0 0 1 1 1 2 2 3 3 3 3 3 3 3 2 2 2 3 4 4 5 5 3 2 3 4 5 4 4 3 3 4 4 5 7 12 14 16 17 18 18 18 19 19 19 20 20 20 20 20 20 20 20 20 20 20 20 20 20 21 21 21 21 21 21 21 21 22 22 22
1 1 1 1 1 1 1 1 1 1 2 2 2 2 2 2 1 1 1 1 1 2 3 3 3 3 3 4 4 4 3 3 3 3 3 4 5 4 2 2 3 3 4 4 4 4 4 4 4 5 8 12 15 16 17 18 18 19 19 20 20 20 20 20 20 20 20 20 20 20 20 20 20 20 20 21 21 21 21 21 21 21 21 22 22 22
0 0 0 0 0 1 1 1 1 1 1 2 2 2 2 2 2 2 2 2 2 2 3 3 4 4 4 4 4 4 3 3 3 2 3 4 5 4 3 2 3 4 5 4 4 4 4 4 4 5 6 10 13 15 17 18 18 19 20 20 20 20 20 20 20 20 20 20 20 20 21 21 21 21 21 21 21 21 21 21 21 21 21 21 22 22
1 1 1 1 2 2 2 2 2 2 1 1 2 2 2 2 2 2 2 2 2 2 3 3 4 4 4 4 4 3 3 2 2 2 2 3 4 4 3 2 3 4 5 4 4 4 4 5 5 4 4 7 11 14 16 17 19 19 20 20 20 20 20 20 20 20 20 21 21 21 21 21 21 21 21 21 21 21 21 21 21 21 21 21 21 22
2 2 3 4 6 7 8 8 8 7 6 4 3 2 2 2 2 2 2 2 2 2 3 4 4 4 4 3 3 3 2 2 1 1 2 2 3 4 3 2 3 4 5 5 4 4 5 5 5 4 4 5 8 12 15 17 18 19 19 19 19 19 20 20 21 21 21 21 22 22 21 21 21 21 21 21 21 21 21 21 21 21 21 21 21 21
5 6 7 8 9 9 10 10 11 11 11 9 7 5 3 2 2 2 3 3 2 2 3 4 5 5 4 3 3 2 2 2 1 1 1 2 3 4 4 3 3 4 5 5 5 5 6 6 6 5 5 4 6 9 13 15 16 17 18 18 19 20 20 21 21 21 22 22 22 22 21 21 21 21 21 21 21 21 21 21 21 21 21 20 18 17
6 7 7 8 8 9 9 10 10 10 11 11 11 9 6 3 3 3 4 3 2 2 3 4 5 5 4 3 3 3 2 2 2 1 1 2 3 4 3 3 3 3 4 5 5 5 6 6 6 5 5 5 5 6 9 12 14 15 16 18 19 20 21 21 21 21 21 21 21 21 21 21 21 21 21 22 22 22 22 22 22 21 20 16 12 9
7 8 8 9 9 9 9 9 9 9 10 10 11 10 7 4 3 4 4 2 2 2 4 4 5 5 4 4 4 3 3 3 2 2 2 2 3 3 3 2 2 2 3 4 4 4 5 4 4 4 4 5 4 4 5 7 10 11 13 16 18 19 20 20 21 21 21 21 21 21 21 21 21 21 22 22 22 22 22 22 21 19 15 11 9 7
6 6 7 7 8 8 7 6 6 7 9 10 11 10 7 4 3 3 3 2 2 3 4 5 5 5 4 4 4 4 3 3 2 2 1 1 2 2 2 2 2 2 2 3 4 5 4 3 3 3 2 3 3 3 4 5 6 7 9 12 14 15 17 19 20 20 21 21 21 21 21 21 21 21 22 22 22 22 22 23 20 16 10 8 7 7
3 3 3 4 4 4 4 3 4 5 7 8 9 8 6 3 2 3 3 3 3 3 4 4 5 4 4 4 3 3 2 2 2 1 1 1 2 2 2 3 3 3 2 2 3 5 5 4 3 2 2 3 4 4 5 5 5 6 6 7 8 10 14 16 18 18 19 20 20 21 21 21 21 21 22 22 22 22 22 22 20 15 9 8 7 7
3 3 3 3 3 2 2 2 2 3 3 4 5 5 4 3 2 2 3 3 3 3 3 4 4 4 4 4 4 4 3 2 2 2 2 2 2 2 2 3 3 3 2 2 3 4 5 5 4 3 3 4 5 5 5 5 5 5 5 6 6 7 12 14 15 15 15 17 18 19 20 21 21 21 22 22 22 22 22 22 20 16 10 8 7 7
3 3 3 3 2 2 2 2 2 2 3 3 3 3 3 3 3 3 3 3 3 3 3 3 4 4 4 4 5 5 4 3 4 4 4 3 3 3 3 3 4 4 3 3 3 4 4 5 6 6 6 5 5 5 5 5 5 5 5 5 5 6 9 10 11 11 11 13 14 15 17 19 19 20 21 21 21 22 22 22 21 18 13 9 8 7
3 3 3 2 2 2 3 3 3 3 3 3 3 3 3 3 3 3 3 3 3 3 3 3 3 4 4 4 5 5 5 4 4 5 5 3 3 3 3 4 4 4 4 4 4 4 5 6 6 6 6 6 5 5 5 5 5 5 4 4 5 5 6 7 7 8 9 10 10 10 12 13 14 16 17 18 19 20 20 21 21 20 18 13 10 9
3 3 3 2 2 3 3 3 3 3 3 3 3 3 2 2 2 2 2 2 3 3 3 3 3 3 4 4 5 5 5 4 4 4 5 3 3 3 4 4 4 4 4 4 4 4 4 6 7 7 7 7 7 6 5 5 5 4 4 5 5 5 5 5 6 7 8 9 8 8 8 8 9 10 12 14 16 18 20 21 21 22 21 19 16 12
2 2 3 2 3 3 3 3 3 3 2 2 1 1 1 1 1 1 1 1 1 2 3 3 3 3 4 4 5 6 6 5 4 5 5 4 3 3 4 4 4 4 5 5 5 5 5 6 7 8 9 8 8 6 5 4 4 4 4 5 5 5 6 6 6 6 7 8 8 8 8 7 8 8 9 13 16 19 20 21 21 22 22 22 20 18
2 2 2 2 2 3 3 3 2 1 1 1 1 0 1 0 0 0 1 1 1 2 3 3 4 4 5 5 6 6 7 6 6 6 7 5 4 4 4 5 5 5 5 5 6 6 6 7 8 8 8 8 7 6 6 5 5 5 5 5 5 6 6 6 6 6 6 8 8 8 8 8 8 8 9 13 16 17 18 20 20 20 21 21 21 21
2 2 2 2 2 2 2 1 1 1 1 1 1 1 2 2 2 2 2 3 3 3 4 4 4 5 8 8 8 8 8 8 8 8 8 6 5 5 6 6 6 6 6 6 6 6 6 7 8 8 7 7 7 8 8 7 7 7 7 6 6 6 6 6 6 6 6 7 8 9 9 9 8 8 8 10 10 10 11 11 13 15 17 17 19 20
2 2 2 2 2 1 1 1 1 1 1 1 2 2 2 3 3 3 3 3 4 4 4 5 5 5 7 8 9 10 10 9 9 8 8 7 6 6 7 7 7 7 6 6 6 6 7 7 7 7 7 7 8 8 8 8 8 8 9 8 7 7 6 6 5 5 5 6 8 9 9 9 8 7 7 7 7 7 7 7 8 10 10 9 11 14
2 2 2 2 2 2 2 2 2 2 2 2 3 3 3 3 3 3 3 4 4 5 5 5 5 5 6 7 8 9 9 8 7 7 6 6 6 6 7 7 7 7 6 6 6 6 7 7 8 8 8 8 8 8 8 8 8 9 10 9 7 6 6 6 6 6 6 6 7 8 7 7 7 8 8 7 7 7 7 6 7 7 7 7 7 8
2 2 2 2 2 3 3 3 3 2 2 2 2 2 2 2 3 3 3 3 4 4 4 4 4 5 5 6 6 7 8 7 7 7 6 6 7 7 7 7 7 7 7 7 7 7 7 8 9 9 9 9 9 10 10 10 10 11 11 10 9 9 9 9 8 7 6 6 6 6 7 8 9 9 9 8 8 7 7 7 7 8 8 7 7 7
3 3 2 2 2 3 3 3 3 3 3 3 2 2 2 2 2 2 2 3 3 3 3 3 4 5 5 6 6 6 7 7 7 7 8 8 8 8 7 7 7 7 7 7 8 8 8 8 9 9 9 9 9 9 10 10 10 10 10 10 10 11 11 9 7 5 5 6 6 7 8 9 9 8 9 9 8 8 8 8 9 10 10 8 7 7
3 3 3 2 3 3 3 3 3 3 3 3 3 3 2 2 2 2 3 3 3 4 4 4 4 5 5 6 6 5 5 6 7 8 8 8 8 8 8 8 8 8 7 7 8 8 9 9 9 9 9 9 9 10 11 11 10 10 10 10 10 9 8 7 5 5 5 7 7 8 8 8 8 8 9 9 8 8 8 9 11 12 11 9 8 8
3 3 3 2 2 2 3 3 3 3 3 3 3 2 2 2 3 3 3 3 4 4 4 4 4 4 6 6 6 5 4 5 5 6 7 8 8 8 8 9 9 8 8 8 8 8 8 9 9 9 8 8 9 10 10 10 10 10 9 10 10 9 8 8 8 8 7 8 7 7 8 8 8 8 8 9 8 8 8 8 9 9 10 9 9 9
3 3 3 3 3 3 3 3 3 3 3 3 3 3 3 3 3 4 3 4 4 4 4 4 4 4 5 5 5 5 4 4 4 4 5 7 9 10 8 8 8 8 8 8 8 8 8 8 9 8 8 8 9 10 10 11 11 11 11 10 10 10 10 10 10 9 9 9 8 8 8 7 8 9 10 9 9 8 8 9 9 9 9 8 8 8
3 3 3 2 2 2 3 3 3 3 3 3 3 3 3 3 3 3 4 4 4 4 4 4 4 4 5 6 6 5 5 5 5 4 4 4 5 6 7 7 7 7 7 8 8 9 9 9 9 9 8 8 9 10 10 10 10 11 11 11 10 10 10 10 9 9 9 9 9 9 9 8 8 8 9 10 10 9 9 9 9 9 8 8 8 8
2 2 2 2 2 3 3 3 3 3 3 4 4 3 3 3 3 3 4 4 4 4 4 4 4 5 6 6 6 6 6 6 6 5 4 4 4 4 5 6 7 8 8 8 8 9 9 9 9 9 9 9 10 10 10 10 10 10 11 10 10 10 9 9 9 9 8 9 9 9 8 7 8 9 10 10 10 9 8 8 8 8 8 8 8 8
3 3 3 3 3 3 3 3 3 3 4 4 4 4 3 4 4 4 4 4 4 4 4 4 4 5 7 7 6 6 7 7 7 6 5 5 4 4 4 5 5 6 7 8 9 10 10 10 10 10 10 10 11 11 11 10 10 10 10 10 10 10 10 10 9 8 9 9 9 8 7 7 8 10 10 10 10 9 9 9 8 8 8 8 8 8
2 3 3 3 3 3 4 4 4 4 4 4 4 4 4 5 6 6 4 4 3 4 4 5 6 6 7 7 7 7 7 7 7 6 5 5 4 4 4 4 5 5 6 7 7 8 9 10 11 11 11 11 11 12 12 11 10 10 10 9 9 10 10 10 10 9 9 9 9 9 8 8 8 9 9 9 10 10 10 10 9 9 8 8 8 8
3 3 3 3 3 4 4 4 4 5 5 5 5 4 4 4 4 4 4 4 4 4 5 5 6 7 7 7 7 7 7 7 6 6 5 5 4 5 5 4 5 5 6 5 5 6 6 7 8 10 12 12 12 12 11 11 10 10 10 9 9 9 10 10 9 8 8 9 9 9 8 8 7 7 7 9 10 12 11 11 10 9 8 8 8 8
3 3 3 3 4 4 4 4 5 5 5 5 5 5 5 4 4 4 4 4 4 5 5 6 6 7 7 8 7 7 7 7 7 7 6 5 5 5 5 5 5 5 5 5 5 5 5 5 6 7 8 12 13 13 10 10 9 9 9 9 8 8 8 9 9 9 9 9 8 8 7 7 7 7 7 8 10 11 11 11 10 9 8 8 8 8
Wind_Direction
146 166 178 177 177 180 190 187 184 184 193 197 201 208 222 223 218 208 210 218 225 233 242 248 250 258 269 279 283 286 289 290 291 291 291 290 289 288 287 287 286 286 285 285 284 284 284 284 283 283 283 283 283 283 283 283 283 283 284 284 284 284 284 284 284 285 285 286 287 288 289 290 290 290 291 291 290 290 289 288 287 286 285 284 283 283
136 158 183 180 177 179 193 187 181 178 189 200 202 204 205 216 223 228 232 235 237 240 246 253 256 259 261 273 281 286 288 290 291 291 291 291 290 289 288 288 287 286 285 284 284 283 283 283 283 283 283 283 283 282 282 282 282 282 282 283 283 283 283 283 283 284 285 286 287 288 288 289 289 289 289 288 288 287 287 286 285 284 284 283 283 283
149 162 185 185 181 182 194 202 198 195 195 203 206 205 201 212 224 235 243 248 249 251 252 254 257 259 259 266 279 285 288 290 291 292 292 291 290 289 288 287 286 285 284 283 283 283 282 282 282 282 282 282 282 281 281 281 281 281 282 282 282 282 282 283 283 284 285 285 286 287 287 287 287 287 287 286 286 286 286 285 285 285 284 284 284 283
157 167 179 184 184 185 190 197 203 206 208 209 208 206 199 208 218 227 231 239 247 254 256 253 254 255 257 260 274 282 287 289 291 291 291 291 290 289 288 286 285 284 283 283 282 282 282 282 282 282 282 282 282 281 282 282 282 282 282 282 283 283 283 284 284 285 285 286 286 286 286 286 286 286 286 286 286 285 285 285 284 284 283 283 282 281
158 166 174 178 184 186 187 190 194 201 206 204 201 196 193 198 207 216 223 229 239 246 250 249 249 249 251 254 269 279 286 289 291 293 293 293 292 291 289 288 287 286 285 284 284 283 283 283 283 283 283 283 283 283 283 283 283 283 283 283 284 284 285 285 285 285 285 285 285 285 285 285 285 285 285 285 285 284 284 283 282 282 281 280 279 278
157 166 172 178 183 187 186 186 187 188 190 191 189 186 185 188 197 208 220 228 233 237 240 240 241 243 246 251 267 278 285 291 295 298 299 299 298 297 295 293 292 291 289 288 287 287 286 286 286 285 285 285 285 284 284 284 284 283 283 283 283 284 284 284 285 285 285 285 285 285 285 285 284 284 284 283 283 282 281 280 280 279 278 277 277 276
162 183 185 185 184 182 181 183 178 173 167 173 181 188 189 196 202 210 220 223 225 228 234 237 239 241 244 250 262 274 286 296 302 306 306 305 303 301 299 297 295 294 292 291 290 289 288 288 287 287 286 286 286 285 284 284 283 283 283 283 283 284 284 285 285 285 285 285 285 285 284 284 283 282 282 281 280 279 279 278 278 277 277 276 276 276
181 209 208 190 177 169 181 188 183 173 159 161 167 185 221 236 235 231 230 229 226 227 233 239 243 245 245 246 257 273 293 305 310 312 309 305 302 298 296 294 293 292 291 290 289 288 288 288 288 288 288 288 288 287 286 286 286 285 285 285 285 285 285 286 286 285 285 284 284 283 282 282 281 280 280 279 278 278 278 277 277 277 277 277 277 276
202 216 218 191 169 163 187 215 210 188 162 155 159 170 192 219 240 254 259 256 244 233 225 232 243 254 257 256 276 309 321 319 315 309 304 299 294 291 290 289 289 289 288 288 288 288 288 290 291 292 292 293 293 292 292 291 291 290 290 289 289 288 287 286 286 285 284 283 282 281 280 280 279 279 278 278 278 278 278 278 278 278 278 277 277 277
212 212 213 199 177 166 178 211 222 211 165 153 157 166 178 197 218 239 256 259 258 248 220 209 229 271 296 318 336 337 327 318 310 305 301 296 293 291 289 289 289 289 289 290 291 292 294 295 297 298 298 298 298 298 297 297 296 295 294 293 291 289 287 286 285 284 283 282 281 280 280 279 279 279 279 278 278 278 278 278 278 278 278 278 278 277
210 205 197 197 191 181 179 199 208 198 149 143 151 172 185 197 204 214 232 252 268 286 304 277 196 324 334 335 333 330 323 312 304 300 298 293 292 291 290 291 292 293 295 297 298 300 301 301 301 301 300 300 300 300 299 299 298 297 295 293 290 288 286 285 284 283 282 281 281 280 280 280 279 279 279 279 279 279 279 278 278 278 278 278 277 277
201 193 183 186 190 194 196 204 197 163 124 137 160 211 237 219 198 184 191 220 259 295 317 326 348 8 355 332 324 317 310 301 293 289 288 286 285 286 288 292 297 300 303 304 305 304 303 302 300 300 299 299 299 300 300 299 298 296 294 292 289 287 285 284 283 282 282 281 281 281 280 280 280 279 279 279 279 279 278 278 278 278 277 277 277 278
198 184 176 178 185 188 192 195 190 151 139 156 177 204 232 231 190 153 149 182 221 266 337 351 347 338 327 316 306 302 298 291 286 281 278 278 277 278 285 295 302 304 306 307 305 302 300 299 298 297 297 298 298 298 298 297 296 294 292 290 288 287 285 284 283 283 282 282 281 281 280 280 279 279 279 278 278 278 278 277 277 277 277 277 277 277
204 189 175 182 192 199 195 187 187 195 196 186 186 192 206 208 142 95 84 44 342 358 30 8 347 329 313 300 285 276 280 282 282 280 278 274 271 272 297 304 302 300 300 299 295 291 291 293 294 294 294 294 295 295 294 293 292 291 289 288 287 286 285 284 284 283 282 282 281 281 280 279 279 278 278 278 277 277 277 276 276 276 276 276 276 276
189 173 162 182 206 222 215 190 186 194 205 201 189 177 157 75 62 66 65 26 1 3 17 357 338 321 303 287 272 264 268 278 283 285 286 283 280 284 315 311 304 298 295 292 289 286 287 287 286 285 286 286 286 286 287 288 288 288 288 287 286 285 285 284 283 283 282 281 281 280 280 279 278 278 278 277 277 277 277 276 276 276 276 276 276 276
161 139 142 174 222 242 235 191 176 181 206 203 146 95 75 57 58 66 73 44 20 14 15 351 332 317 300 286 278 274 275 285 290 292 295 292 292 299 326 314 303 296 292 289 286 285 285 283 279 276 277 281 284 286 287 288 288 287 287 286 286 285 284 284 283 282 282 281 281 281 280 280 279 279 279 278 278 278 277 277 277 277 276 276 276 276
122 118 130 161 238 259 256 217 164 160 167 105 80 88 101 106 100 93 88 72 48 30 16 346 323 312 303 301 293 285 275 297 300 299 299 294 293 299 314 304 296 291 290 288 285 284 284 282 280 277 276 280 284 286 288 288 288 288 287 287 286 286 285 285 284 284 283 283 283 283 283 282 282 281 281 280 280 279 279 278 278 278 277 277 277 276
120 131 144 187 229 248 257 248 146 112 97 69 62 62 77 94 102 100 98 92 78 48 337 302 286 284 289 293 285 276 274 307 309 304 300 294 293 293 298 291 285 284 286 285 282 280 280 278 276 276 277 282 285 287 289 290 290 289 289 289 289 288 288 288 287 287 287 286 286 286 285 285 284 283 283 282 282 281 280 280 279 279 278 278 277 277
168 175 173 198 216 227 237 214 131 101 97 102 86 69 48 48 62 76 88 101 124 197 246 264 264 265 269 271 269 271 293 321 316 306 298 294 293 293 292 284 280 279 280 279 279 277 275 273 273 275 278 283 286 288 290 291 291 291 291 292 292 292 292 292 291 291 290 290 289 288 288 287 286 285 284 283 283 282 281 281 280 279 279 278 278 277
206 218 201 195 194 202 275 255 175 142 136 127 109 96 81 54 46 46 38 42 236 237 242 252 256 258 260 265 271 287 336 346 330 308 294 291 289 289 287 278 277 277 277 276 274 272 271 268 270 275 279 283 286 289 291 292 293 293 294 295 295 295 295 295 295 294 294 293 292 291 290 289 287 286 285 284 284 283 282 281 281 280 280 279 279 278
287 268 237 182 139 124 234 234 208 161 137 115 103 96 104 85 48 11 300 284 273 266 259 257 259 263 274 285 294 310 347 346 327 305 292 288 286 284 280 273 272 275 277 275 272 267 265 265 266 270 276 283 287 290 292 293 295 296 297 298 298 299 299 299 298 297 296 295 294 292 291 290 288 287 285 284 283 283 282 282 281 281 281 280 280 280
211 245 243 167 136 142 201 214 204 163 125 111 108 113 149 134 164 231 238 257 273 280 279 277 282 290 299 297 298 303 319 313 292 283 287 286 285 282 276 265 267 273 276 278 276 273 269 269 271 274 279 286 290 292 294 295 296 298 299 300 300 301 300 300 299 298 296 295 294 292 291 290 288 287 286 285 284 283 283 283 282 282 282 281 281 280
181 216 241 183 149 153 173 195 197 156 120 121 137 157 165 159 171 192 209 240 269 281 286 291 297 299 297 292 290 289 284 264 253 256 269 278 282 283 279 271 273 276 278 282 285 286 283 280 277 279 283 288 291 293 295 296 298 299 300 301 301 301 300 299 299 298 297 296 295 294 293 292 291 289 288 287 286 285 285 284 284 283 282 282 281 281
98 350 316 332 160 159 161 178 186 164 129 138 154 166 167 168 175 190 210 241 264 276 286 295 298 297 294 292 289 283 270 249 234 233 249 269 277 282 286 286 285 284 283 284 287 290 290 286 281 278 280 287 290 293 295 297 299 299 300 300 300 300 300 300 301 301 300 300 299 298 297 296 294 293 292 290 289 288 287 286 285 284 283 282 282 281
14 348 322 300 283 271 260 256 252 243 212 185 179 184 188 205 224 241 254 265 274 284 293 295 293 290 289 286 283 277 268 242 220 214 237 266 277 282 286 289 290 289 289 290 292 293 291 287 284 280 277 285 290 293 296 297 298 298 299 299 300 301 302 304 305 305 304 303 303 301 299 298 297 295 293 292 290 289 288 287 286 285 284 283 282 281
306 297 291 290 289 288 286 284 281 276 267 254 236 216 209 222 244 261 269 271 276 282 289 286 283 281 280 280 278 275 274 260 229 211 229 270 284 289 292 297 295 293 293 294 295 294 290 287 284 282 281 285 290 293 294 295 296 297 298 300 303 304 306 307 307 306 305 304 303 301 300 298 297 296 294 293 292 291 289 288 288 287 286 285 283 282
299 296 294 293 293 293 293 292 289 286 282 278 272 264 247 238 250 261 262 262 264 270 275 276 278 280 281 277 274 271 274 281 276 256 249 282 288 290 293 299 298 295 293 292 291 289 288 288 288 288 287 285 286 288 290 293 296 298 301 303 305 307 307 306 306 305 304 303 302 301 300 298 297 296 295 294 293 292 291 290 289 288 287 286 284 282
309 304 301 298 296 294 292 291 290 288 288 285 282 279 274 266 259 260 260 259 261 262 264 269 275 281 283 281 278 277 279 281 280 276 277 281 279 280 286 291 290 289 291 292 292 289 287 285 285 285 283 280 278 281 286 294 299 303 305 306 306 305 305 304 304 303 302 302 301 300 300 299 298 297 297 296 295 294 293 292 291 290 289 288 285 282
331 325 318 312 306 301 296 293 291 289 288 287 284 281 275 264 252 250 253 252 253 257 261 265 270 276 282 285 286 286 283 276 269 262 257 261 266 270 278 287 291 296 306 305 301 295 285 277 273 272 273 276 278 284 292 303 306 306 306 304 303 302 302 302 302 302 301 301 301 300 300 299 299 298 298 297 296 296 295 295 294 293 291 289 286 281
340 335 328 320 313 308 303 298 292 287 285 283 280 277 271 257 238 233 236 234 240 249 258 265 269 274 281 288 290 289 281 270 263 259 257 266 271 278 295 305 309 316 331 320 310 301 292 280 266 259 267 285 295 302 307 308 305 302 300 299 298 298 299 300 300 301 301 301 300 300 300 300 300 300 299 299 298 298 297 297 297 296 293 288 284 280
318 314 308 306 305 304 302 295 286 280 279 278 277 275 270 254 229 215 216 218 227 241 254 262 267 271 276 284 286 286 281 272 278 308 25 332 292 291 310 309 307 307 318 316 308 303 301 295 285 273 288 304 305 304 302 298 296 293 292 293 293 295 297 298 299 300 300 300 300 300 301 301 301 300 300 300 299 298 298 297 297 296 291 287 283 279
289 284 278 279 283 289 292 287 281 276 273 272 271 269 264 251 228 207 204 210 220 235 249 258 264 267 269 269 271 273 276 277 295 320 349 319 293 287 295 295 295 295 295 291 289 291 296 299 302 305 308 303 300 296 294 292 290 289 290 290 290 292 295 297 298 299 300 300 301 301 301 301 300 300 299 298 298 297 296 296 295 294 291 287 283 279
289 283 280 283 287 289 288 283 278 271 264 257 253 251 250 242 229 217 209 211 217 228 242 254 262 267 268 266 266 267 271 276 290 299 304 297 289 286 289 292 293 296 297 287 278 275 279 288 297 302 302 298 295 294 294 293 291 289 288 289 289 291 294 297 298 298 299 300 300 300 300 299 298 297 297 296 295 295 294 294 293 292 290 286 282 280
296 294 294 297 298 295 288 281 273 266 257 250 242 234 228 225 222 219 216 213 214 221 230 244 255 263 268 269 268 268 270 272 284 295 301 299 293 293 297 295 296 297 299 292 285 279 276 282 289 296 299 298 296 295 295 294 292 289 284 283 285 289 293 297 297 297 297 297 297 296 296 296 295 294 294 293 292 292 292 291 291 290 289 287 284 282
298 298 298 298 296 291 286 279 272 265 259 251 242 231 221 213 212 214 214 212 212 215 222 232 241 250 258 264 269 271 272 274 289 302 307 304 300 297 297 292 294 296 297 292 290 288 284 285 288 292 296 298 297 295 292 289 287 285 282 281 282 284 289 292 294 294 294 294 293 291 291 290 289 288 289 289 289 289 289 290 290 289 289 288 286 285
294 294 291 287 284 280 277 272 268 264 261 258 253 240 207 186 187 203 218 217 224 232 240 242 243 246 249 257 264 270 274 279 289 297 297 297 296 294 289 286 288 291 291 289 288 287 287 288 289 290 291 293 295 296 294 291 289 288 288 286 285 284 284 286 287 288 290 289 289 288 287 286 284 283 283 286 287 288 289 289 289 289 288 287 286 284
282 281 278 273 269 268 268 267 268 269 274 281 297 326 20 35 24 350 322 314 300 288 278 272 267 263 261 261 263 266 272 277 281 282 280 280 279 278 277 278 280 280 280 282 284 285 286 287 288 288 286 286 289 294 299 302 300 296 292 290 289 287 285 283 281 280 281 282 283 284 284 284 284 284 284 286 288 289 289 289 288 286 285 284 283 282
271 270 268 264 261 260 263 272 284 295 302 312 331 343 350 347 341 332 327 320 311 302 291 282 275 270 266 265 264 264 266 269 270 269 267 265 263 263 265 270 271 270 267 270 275 279 282 283 286 287 286 283 283 286 293 298 299 298 295 292 289 285 283 280 276 273 274 277 280 283 284 285 286 286 286 286 287 287 286 283 281 281 281 280 279 279
261 261 260 258 259 265 279 293 294 294 301 322 330 332 331 326 321 316 310 301 292 284 274 270 267 265 261 260 260 260 261 262 261 259 256 253 252 254 258 263 266 266 263 262 264 267 270 273 276 280 284 286 287 287 288 290 292 294 296 295 291 284 279 278 277 276 275 279 282 284 285 285 284 284 282 282 280 279 277 277 275 275 276 276 277 277
252 251 252 262 276 293 302 300 296 296 309 319 320 317 313 307 298 290 280 274 269 265 260 257 259 260 258 257 258 259 260 259 256 253 249 245 244 246 250 256 261 265 264 261 258 258 260 264 267 270 273 278 283 286 287 286 287 290 295 297 295 292 290 289 286 282 279 278 279 280 282 282 281 279 278 277 275 274 274 275 275 275 274 274 276 277
252 257 270 288 303 307 301 301 303 309 319 318 314 307 298 289 281 274 270 267 266 267 268 267 268 269 268 265 263 263 262 261 258 254 249 242 240 240 245 251 256 261 263 262 259 256 255 260 264 267 269 272 276 279 280 281 283 287 290 290 290 291 293 291 288 284 280 276 275 276 279 281 282 281 279 279 276 274 272 273 274 274 273 270 269 270
276 287 298 301 298 293 289 298 305 309 309 305 297 290 282 276 273 273 277 278 279 280 283 284 283 281 279 274 269 265 263 262 259 255 252 245 241 238 241 246 250 255 259 261 260 258 256 257 261 264 266 269 273 276 277 279 280 281 282 283 287 290 291 287 283 279 279 278 277 278 279 281 282 282 281 280 278 276 273 270 270 270 270 268 265 263
297 299 294 286 280 279 287 299 305 306 302 293 285 278 275 275 278 281 283 283 282 281 281 279 278 279 279 277 275 270 263 258 255 253 252 247 242 239 240 243 246 249 252 257 260 260 258 257 257 259 262 265 267 271 275 279 280 280 278 280 285 290 291 289 288 286 282 281 280 280 279 279 279 279 279 279 277 276 274 271 269 268 266 266 264 261
299 292 285 284 287 296 305 309 307 301 295 288 285 284 282 280 281 280 280 279 278 278 277 276 275 275 276 277 278 277 271 262 254 249 250 248 244 240 242 243 244 245 246 251 257 262 264 261 259 258 259 261 263 266 271 276 278 279 278 278 278 278 278 285 291 292 288 283 280 278 276 277 278 279 279 278 277 276 275 272 269 267 264 263 262 261
285 284 285 291 297 302 304 300 296 292 288 287 285 284 282 277 274 272 270 272 273 273 272 273 275 276 275 276 279 281 280 276 269 261 256 256 256 255 253 251 250 250 249 249 252 257 262 264 265 264 263 261 262 264 268 273 277 279 279 278 277 275 273 278 283 285 285 284 282 280 277 277 279 281 281 279 278 276 274 273 272 271 267 264 261 261
266 273 280 286 290 292 292 292 291 290 287 285 282 280 277 271 267 265 264 266 268 269 269 267 269 272 275 280 283 285 286 286 283 279 272 264 259 257 256 255 256 256 255 254 253 254 255 260 265 269 271 269 266 264 265 269 274 277 279 280 279 278 277 277 277 278 279 280 280 280 279 279 279 279 279 278 277 276 273 272 271 271 270 266 263 261
275 283 290 294 296 295 294 294 292 289 285 282 280 278 275 269 266 264 263 263 265 268 270 268 267 269 273 278 282 285 287 287 285 283 279 273 266 261 259 257 256 256 257 257 257 257 256 257 260 264 269 272 271 270 268 268 270 273 277 279 279 279 278 277 276 275 274 275 276 277 279 280 279 277 276 276 276 277 276 274 273 272 272 271 269 266
299 303 304 305 302 297 293 290 287 283 281 279 278 275 272 268 268 269 269 265 268 272 275 275 274 273 274 275 276 278 280 282 283 284 283 280 276 270 264 262 261 259 258 259 260 260 260 258 257 257 260 264 269 271 272 270 269 270 273 275 276 276 276 276 275 275 273 272 271 272 273 274 275 276 278 279 280 280 282 282 281 279 278 277 275 273
302 304 303 299 294 289 285 283 280 278 277 277 277 275 272 271 274 276 278 276 277 277 277 276 275 275 274 274 274 274 276 278 279 281 282 281 280 277 273 270 268 267 265 264 263 262 262 260 255 252 250 253 259 265 270 270 269 268 270 271 271 272 273 274 274 274 273 272 270 268 266 267 269 273 278 281 283 284 286 286 285 283 281 278 276 274
293 293 291 287 282 279 277 276 275 275 275 277 277 278 276 274 274 275 276 277 276 274 272 271 272 272 274 274 275 275 275 276 278 279 279 280 280 280 278 276 275 274 274 272 269 268 267 265 257 249 243 243 247 254 263 267 268 268 267 266 266 267 270 272 274 274 273 273 272 270 268 269 271 274 277 281 284 286 287 286 285 283 281 279 275 273
290 286 282 277 275 274 274 274 275 275 276 277 278 278 279 277 276 274 272 272 271 269 268 267 267 268 271 273 274 274 274 275 276 277 277 277 278 277 276 276 277 278 279 281 281 280 280 280 275 265 251 243 242 244 253 260 265 268 268 265 265 266 269 272 274 275 274 275 275 276 277 278 278 280 281 283 285 286 286 285 284 283 281 280 277 275